{"data":{"norad_id":67319,"intl_designator":"2026-002Q","name":"STARLINK-36470","alt_names":[],"object_type":"PAYLOAD","status":"ACTIVE","operator":null,"country":"US","launch_date":"2026-01-04","launch_site_code":"AFETR","launch_vehicle":null,"mission":null,"orbit_class":"UNKNOWN","rcs_meters":null,"size_class":null,"mass_kg":null,"dimensions":null,"purposes":["comms"],"wikipedia_slug":null,"has_3d_model":false,"image_url":null,"decayed_at":null,"tle_current":{"epoch":"2026-09-19T11:21:25.564320Z","epoch_age_seconds":164157,"freshness":"FRESH","line1":"1 67319U 26002Q   26262.47321255  .00011614  00000+0  43079-3 0  9991","line2":"2 67319  43.0031 311.0544 0001755 285.5151  74.5507 15.27587666 40771","mean_motion":15.27587666,"eccentricity":0.0001755,"inclination_deg":43.0031,"raan_deg":311.0544,"arg_perigee_deg":285.5151,"mean_anomaly_deg":74.5507,"bstar":0.00043079,"rev_number":4077,"period_min":94.266275648235,"perigee_km":481.82200724251,"apogee_km":484.23027550513,"semimajor_km":6861.1631413738,"source":"CELESTRAK","updated_at":"2026-09-20T09:00:43.505891Z"}}}